TimeEDT,TemperatureF,Dew PointF,Humidity,Sea Level PressureIn,VisibilityMPH,Wind Direction,Wind SpeedMPH,Gust SpeedMPH,PrecipitationIn,Events,Conditions,WindDirDegrees,DateUTC
12:14 AM,59.7,54.7,83,30.08,10.0,Calm,Calm,-,N/A,,Clear,0,2013-07-12 04:14:00
12:34 AM,59.9,54.9,83,30.09,10.0,Calm,Calm,-,N/A,,Clear,0,2013-07-12 04:34:00
12:54 AM,59.2,54.7,85,30.09,10.0,Calm,Calm,-,N/A,,Clear,0,2013-07-12 04:54:00
1:14 AM,58.8,54.9,87,30.09,10.0,Calm,Calm,-,N/A,,Clear,0,2013-07-12 05:14:00
1:34 AM,57.4,54.0,88,30.10,10.0,Calm,Calm,-,N/A,,Clear,0,2013-07-12 05:34:00
1:54 AM,58.1,54.9,89,30.10,10.0,Calm,Calm,-,N/A,,Clear,0,2013-07-12 05:54:00
2:15 AM,56.5,53.8,91,30.10,10.0,Calm,Calm,-,N/A,,Clear,0,2013-07-12 06:15:00
2:34 AM,56.1,53.4,91,30.10,10.0,Calm,Calm,-,N/A,,Clear,0,2013-07-12 06:34:00
2:54 AM,56.1,53.8,92,30.10,10.0,Calm,Calm,-,N/A,,Clear,0,2013-07-12 06:54:00
3:15 AM,56.3,54.1,92,30.10,10.0,Calm,Calm,-,N/A,,Clear,0,2013-07-12 07:15:00
3:34 AM,55.2,52.9,92,30.10,10.0,Calm,Calm,-,N/A,,Clear,0,2013-07-12 07:34:00
3:54 AM,55.2,53.1,92,30.11,10.0,Calm,Calm,-,N/A,,Clear,0,2013-07-12 07:54:00
4:15 AM,55.6,53.2,92,30.11,10.0,Calm,Calm,-,N/A,,Clear,0,2013-07-12 08:15:00
4:34 AM,54.9,52.7,92,30.12,10.0,Calm,Calm,-,N/A,,Clear,0,2013-07-12 08:34:00
4:54 AM,54.7,52.7,93,30.13,10.0,Calm,Calm,-,N/A,,Clear,0,2013-07-12 08:54:00
5:14 AM,55.0,52.9,92,30.13,10.0,Calm,Calm,-,N/A,,Clear,0,2013-07-12 09:14:00
5:34 AM,54.5,52.3,92,30.14,10.0,Calm,Calm,-,N/A,,Clear,0,2013-07-12 09:34:00
5:54 AM,54.3,52.5,94,30.14,7.0,Calm,Calm,-,N/A,,Clear,0,2013-07-12 09:54:00
6:14 AM,54.1,52.3,94,30.14,10.0,Calm,Calm,-,N/A,,Clear,0,2013-07-12 10:14:00
6:34 AM,54.9,52.7,92,30.15,10.0,Calm,Calm,-,N/A,,Clear,0,2013-07-12 10:34:00
6:55 AM,55.2,53.2,93,30.15,10.0,Calm,Calm,-,N/A,,Clear,0,2013-07-12 10:55:00
7:14 AM,56.8,54.9,93,30.16,7.0,Calm,Calm,-,N/A,,Clear,0,2013-07-12 11:14:00
7:34 AM,58.5,56.3,93,30.16,10.0,Calm,Calm,-,N/A,,Clear,0,2013-07-12 11:34:00
7:55 AM,60.3,57.7,91,30.16,10.0,Calm,Calm,-,N/A,,Clear,0,2013-07-12 11:55:00
8:14 AM,61.9,58.8,90,30.16,10.0,Calm,Calm,-,N/A,,Clear,0,2013-07-12 12:14:00
8:34 AM,63.9,59.9,87,30.16,10.0,Calm,Calm,-,N/A,,Clear,0,2013-07-12 12:34:00
8:55 AM,65.3,60.1,83,30.16,10.0,Calm,Calm,-,N/A,,Clear,0,2013-07-12 12:55:00
9:14 AM,66.7,60.3,80,30.17,10.0,Calm,Calm,-,N/A,,Clear,0,2013-07-12 13:14:00
9:34 AM,68.4,61.2,78,30.17,10.0,Calm,Calm,-,N/A,,Clear,0,2013-07-12 13:34:00
9:55 AM,69.6,60.4,73,30.16,10.0,Calm,Calm,-,N/A,,Clear,0,2013-07-12 13:55:00
10:14 AM,71.1,60.4,69,30.16,10.0,Calm,Calm,-,N/A,,Clear,0,2013-07-12 14:14:00
10:34 AM,71.6,58.6,64,30.16,10.0,NE,3.5,-,N/A,,Clear,40,2013-07-12 14:34:00
10:54 AM,72.5,58.3,61,30.16,10.0,Calm,Calm,-,N/A,,Clear,0,2013-07-12 14:54:00
11:14 AM,73.6,59.5,61,30.16,10.0,Calm,Calm,-,N/A,,Clear,0,2013-07-12 15:14:00
11:34 AM,74.3,59.5,60,30.16,10.0,ENE,8.1,-,N/A,,Clear,70,2013-07-12 15:34:00
11:54 AM,74.5,58.3,57,30.16,10.0,North,5.8,-,N/A,,Clear,360,2013-07-12 15:54:00
12:14 PM,75.4,57.0,53,30.15,10.0,ENE,9.2,-,N/A,,Clear,70,2013-07-12 16:14:00
12:34 PM,75.9,58.5,55,30.15,10.0,NE,6.9,-,N/A,,Clear,40,2013-07-12 16:34:00
12:54 PM,76.1,56.5,50,30.15,10.0,East,8.1,-,N/A,,Clear,90,2013-07-12 16:54:00
1:15 PM,76.5,57.0,51,30.15,10.0,NNE,3.5,-,N/A,,Clear,30,2013-07-12 17:15:00
1:34 PM,76.3,55.4,48,30.15,10.0,NNE,3.5,-,N/A,,Clear,20,2013-07-12 17:34:00
1:54 PM,77.0,54.0,45,30.15,10.0,NNE,5.8,-,N/A,,Clear,30,2013-07-12 17:54:00
2:15 PM,77.0,53.8,44,30.15,10.0,East,4.6,-,N/A,,Clear,90,2013-07-12 18:15:00
2:34 PM,77.2,51.8,41,30.15,10.0,NNE,4.6,-,N/A,,Clear,30,2013-07-12 18:34:00
2:54 PM,77.4,53.4,43,30.15,10.0,East,3.5,-,N/A,,Clear,100,2013-07-12 18:54:00
3:15 PM,77.9,54.1,44,30.15,10.0,East,4.6,-,N/A,,Clear,100,2013-07-12 19:15:00
3:34 PM,77.9,54.3,44,30.14,10.0,Calm,Calm,-,N/A,,Clear,0,2013-07-12 19:34:00
3:54 PM,77.9,51.4,40,30.15,10.0,Calm,Calm,-,N/A,,Clear,0,2013-07-12 19:54:00
4:15 PM,78.3,53.2,42,30.14,10.0,NE,3.5,-,N/A,,Clear,50,2013-07-12 20:15:00
4:34 PM,78.8,52.0,39,30.14,10.0,East,6.9,-,N/A,,Clear,100,2013-07-12 20:34:00
4:54 PM,78.8,53.1,41,30.14,10.0,East,8.1,-,N/A,,Clear,80,2013-07-12 20:54:00
5:14 PM,78.4,53.1,41,30.13,10.0,Calm,Calm,-,N/A,,Clear,0,2013-07-12 21:14:00
5:34 PM,78.3,54.5,44,30.13,10.0,ESE,8.1,-,N/A,,Clear,110,2013-07-12 21:34:00
5:55 PM,78.3,54.9,44,30.13,10.0,NE,4.6,-,N/A,,Clear,50,2013-07-12 21:55:00
6:14 PM,78.1,55.0,45,30.12,10.0,East,4.6,-,N/A,,Clear,100,2013-07-12 22:14:00
6:34 PM,77.7,55.2,46,30.12,10.0,SE,4.6,-,N/A,,Clear,130,2013-07-12 22:34:00
6:55 PM,77.5,55.9,47,30.12,10.0,SE,3.5,-,N/A,,Clear,130,2013-07-12 22:55:00
7:14 PM,77.5,55.9,47,30.12,10.0,East,3.5,-,N/A,,Clear,90,2013-07-12 23:14:00
7:34 PM,77.4,56.3,48,30.12,10.0,East,3.5,-,N/A,,Clear,90,2013-07-12 23:34:00
7:55 PM,76.5,56.7,50,30.12,10.0,Calm,Calm,-,N/A,,Clear,0,2013-07-12 23:55:00
8:14 PM,76.3,57.2,52,30.12,10.0,Calm,Calm,-,N/A,,Clear,0,2013-07-13 00:14:00
8:34 PM,75.2,60.1,59,30.12,10.0,Calm,Calm,-,N/A,,Clear,0,2013-07-13 00:34:00
8:55 PM,74.1,58.8,59,30.12,10.0,ESE,3.5,-,N/A,,Clear,110,2013-07-13 00:55:00
9:14 PM,73.0,59.4,62,30.12,10.0,Calm,Calm,-,N/A,,Clear,0,2013-07-13 01:14:00
9:34 PM,69.4,60.3,73,30.13,10.0,Calm,Calm,-,N/A,,Clear,0,2013-07-13 01:34:00
9:54 PM,68.4,60.1,75,30.13,10.0,Calm,Calm,-,N/A,,Clear,0,2013-07-13 01:54:00
10:14 PM,67.6,61.0,79,30.14,10.0,Calm,Calm,-,N/A,,Clear,0,2013-07-13 02:14:00
10:34 PM,67.1,60.8,80,30.15,10.0,Calm,Calm,-,N/A,,Clear,0,2013-07-13 02:34:00
10:54 PM,65.1,60.1,84,30.14,10.0,Calm,Calm,-,N/A,,Clear,0,2013-07-13 02:54:00
11:14 PM,64.2,60.3,87,30.15,10.0,Calm,Calm,-,N/A,,Clear,0,2013-07-13 03:14:00
11:34 PM,64.4,60.3,86,30.14,10.0,Calm,Calm,-,N/A,,Clear,0,2013-07-13 03:34:00
11:54 PM,63.9,60.3,88,30.14,10.0,Calm,Calm,-,N/A,,Clear,0,2013-07-13 03:54:00